Regional Weather Roundup
Issued by NWS Wakefield, VA

Home | Current Version | Previous Version | Text Only | Print | Product List | Glossary On
Versions: 1 2 3 4 5 6 7 8 9 10 11 12 13 14 15 16 17 18 19 20 21 22 23 24 25 26 27
000
ASUS41 KAKQ 211815
RWRAKQ

REGIONAL WEATHER ROUNDUP
NATIONAL WEATHER SERVICE WAKEFIELD VA
200 PM EDT SAT OCT 21 2017

Note: "fair" indicates few or no clouds below 12,000 feet with no
significant weather and/or obstructions to visibility. * = Denotes
station may not report precipitation (e.g., rain,snow,etc.),
thunder or fog.

VAZ042-051-052>054-056-211900-
NORTHERN VIRGINIA

CITY           SKY/WX    TMP DP  RH WIND       PRES   REMARKS
WASH NATIONAL  PTSUNNY   76  42  29 VRB5      30.33F
DULLES         PTSUNNY   75  44  33 CALM      30.32F
FORT BELVOIR   SUNNY     75  38  26 S5        30.32F
QUANTICO       SUNNY     71  54  54 S3        30.33F
FREDERICKSBRG* SUNNY     76  44  31 S3        30.31F
STAFFORD*      SUNNY     75  40  28 CALM      30.36F
WARRENTON      SUNNY     78  35  21 CALM      30.31F
CULPEPER*      SUNNY     77  39  26 SE3       30.32F
MANASSAS*      SUNNY     75  44  33 SE6       30.32F
LEESBURG*      SUNNY     77  45  31 SW5       30.33F
WINCHESTER     SUNNY     70  46  43 S5        30.32F
FRONT ROYAL*   CLEAR     73  48  40 NE5       30.31F
LURAY*         CLEAR     75  48  38 CALM      30.32F
$$

VAZ048-049-060>072-079>083-211900-
CENTRAL AND SOUTH CENTRAL VIRGINIA

CITY           SKY/WX    TMP DP  RH WIND       PRES   REMARKS
RICHMOND       PTSUNNY   77  48  35 VRB3      30.31F
CHESTERFIELD*  NOT AVBL
PETERSBURG*    SUNNY     76  50  40 CALM      30.32F
HANOVER        SUNNY     75  48  38 VRB3      30.33F
TAPPAHANNOCK*  SUNNY     77  33  20 E5        30.33F
QUINTON*       FAIR      75  50  41 CALM      30.31F HAZE
CHARLOTTSVILLE SUNNY     77  48  35 VRB6      30.32F
GORDONSVILLE*  CLEAR     76  47  35 SW5       30.31F
ORANGE*        SUNNY     73  45  35 CALM      30.31F
LOUISA*        SUNNY     75  46  35 CALM      30.32F
BUMPASS*       FAIR      75  49  38 CALM      30.32F
FARMVILLE*     SUNNY     79  51  37 S3        30.30F
CREWE*         FAIR      77  53  44 CALM      30.31F
FORT PICKETT*  FAIR      77  53  43 CALM      30.31F
CHASE CITY*    FAIR      77  52  41 CALM      30.31F
CLARKSVILLE*   FAIR      77  52  41 CALM      30.31F
SOUTH HILL*    SUNNY     77  55  46 S5        30.37F
LAWRENCEVILLE* FAIR      76  52  42 CALM      30.31F
EMPORIA*       SUNNY     77  54  44 N5        30.33S
$$

VAZ088>098-211900-
SOUTHEAST VIRGINIA

CITY           SKY/WX    TMP DP  RH WIND       PRES   REMARKS
NORFOLK        SUNNY     74  51  44 NE7       30.32F
VIRGINIA BEACH MOSUNNY   73  50  44 E7        30.31F
NORFOLK NAVAL  MOSUNNY   74  53  48 E6        30.33F
WEST POINT*    SUNNY     76  47  36 W5        30.33F
SALUDA*        FAIR      71  60  70 E6        30.32F
NEWPORT NEWS   SUNNY     75  55  49 E9        30.32F
LANGLEY AFB    SUNNY     74  56  52 E8        30.32F
FORT EUSTIS    SUNNY     79  55  43 W3        30.29F
WILLIAMSBURG*  SUNNY     79  59  50 SE5       30.32F
HR EXEC AP*    NOT AVBL
FRANKLIN*      SUNNY     77  52  42 NW3       30.32S
US460-WAKEFLD  SUNNY     77  55  46 VRB3      30.31F
$$

VAZ020-022-025-037-045-211900-
WEST CENTRAL AND SOUTHWEST VIRGINIA

CITY           SKY/WX    TMP DP  RH WIND       PRES   REMARKS
STAUNTON*      SUNNY     73  49  43 S6        30.34F
WAYNESBORO*    CLEAR     73  52  48 SE5       30.33F
HOT SPRINGS VA SUNNY     64  44  47 SE3       30.40F
LYNCHBURG      SUNNY     74  48  39 SE3       30.32F
DANVILLE       SUNNY     75  52  44 NE3       30.32F
SOUTH BOSTON*  FAIR      78  49  36 SE3       30.32F
MARTINSVILLE   SUNNY     74  51  43 S3        30.35F
ROANOKE        CLOUDY    73  52  47 VRB3      30.34F
BLACKSBURG     SUNNY     72  49  43 SW3       30.37F
DUBLIN*        CLOUDY    73  49  42 S5        30.35F
MARION*        CLOUDY    73  42  32 E5        30.37F
HILLSVILLE*    CLOUDY    70  41  35 CALM      30.35F
RICHLANDS*     FAIR     N/A N/A N/A NW5       30.34F
WISE*          MOSUNNY   72  46  40 SE3       30.35F
ABINGDON*      MOSUNNY   76  38  25 CALM      30.32F
$$

MDZ021>025-VAZ099-100-211900-
SOUTHERN MARYLAND AND THE DELMARVA PENINSULA

CITY           SKY/WX    TMP DP  RH WIND       PRES   REMARKS
PATUXENT RIVER MOSUNNY   73  47  39 SE7       30.32F
BAY BRIDGE APT SUNNY     70  54  56 NW6       30.34F
LEONARDTOWN    NOT AVBL
DOVER          PTSUNNY   76  38  26 NE3       30.32F
GEORGETOWN     SUNNY     77  45  32 N3        30.33F
EASTON         SUNNY     77  39  25 CALM      30.36F
CAMBRIDGE      SUNNY     75  41  29 CALM      30.32F
SALISBURY      SUNNY     77  42  28 E8        30.32F
OCEAN CITY     SUNNY     71  58  63 E7        30.34F
WALLOPS ISLAND SUNNY     72  57  59 E6        30.33F
ACCOMACK*      SUNNY     76  45  32 N3        30.31F
$$

NCZ012>017-030>032-211900-
NORTH CENTRAL AND EASTERN NORTH CAROLINA

CITY           SKY/WX    TMP DP  RH WIND       PRES   REMARKS
ROANOKE RAPIDS FAIR      75  54  46 CALM      30.32F
RALEIGH        PTSUNNY   76  49  38 CALM      30.31F
ELIZABETH CITY SUNNY     77  53  43 CALM      30.31F
AHOSKIE*       SUNNY     75  55  49 E3        30.32F
EDENTON*       SUNNY     76  58  53 CALM      30.32F
CURRITUCK*     SUNNY     73  56  55 E7        30.33F HAZE
KILL DEVIL HLS SUNNY     71  58  63 CALM      30.31F
MANTEO         SUNNY    N/A N/A N/A E9        30.33S
CAPE HATTERAS  SUNNY     75  62  64 VRB6      30.32F
TARBORO*       NOT AVBL
GOLDSBORO      SUNNY     78  52  39 E7        30.29F
WASHINGTON     SUNNY     76  55  47 NE3       30.32F
GREENVILLE     SUNNY     77  54  44 SE5       30.32F
NEW BERN       SUNNY     78  55  44 SE6       30.32F
WILMINGTON     SUNNY     77  57  50 SE6       30.30F
$$

VAZ048-211900-
ELSEWHERE

CITY           SKY/WX    TMP DP  RH WIND       PRES   REMARKS
HARRISBURG PA  MOSUNNY   71  51  49 CALM      30.32F
BALTIMORE      PTSUNNY   74  39  28 SE5       30.32F
ANNAPOLIS      SUNNY     71  53  52 SE6       30.33F
ANDREWS AFB    SUNNY     74  42  31 CALM      30.32F
PHILADELPHIA   PTSUNNY   75  41  29 S3        30.32F
HENDERSON NC   SUNNY     74  51  44 CALM      30.32F
GREENSBORO     PTSUNNY   75  52  44 E6        30.31F
ROCKY MOUNT    SUNNY     76  54  46 CALM      30.31F
$$

VAZ100-211900-
MARINE

STATION/POSITION TIME  TEMP    WIND        PRES    WAVE   SWELL
                       AIR SEA DIR/SP/G            HT/PER HT/PER
                 (UTC) (F)     (DEG/KT/KT) (MB)    (FT/S) (FT/S)
BRANDYWINE LGT   1742   68     210/  2/  3 1027.7F
CAPE MAY NJ      1748   71 65  230/  4/  5 1026.7F
LEWES DE         1742   72 66  130/  3/  5 1027.0F
15NM E FENWICK I 1750   67 69   30/  2/  4 1027.6F   2/ 8   2/ 8
OCEAN-CITY-INLET 1742   68 67   80/  5/  7 1027.7F
WACHAPREAGUE VA  1742   72 67   80/  5/  6 1026.8F
THOMAS POINT MD  1800   66 68   CALM  /  1   N/A
GOOSES REEF MD   1800   69 71  330/  2/  2 1035.4    0
COVE POINT MD    1742   68     350/  5/  6 1027.7F
SOLOMONS ISLAND  1742   69 69  110/  5/  6 1026.6F
BISHOPS HEAD MD  1742   68 67  130/  3/  3 1027.4F
PINEY POINT MD   1742          210/  5/  5   N/A
POTOMAC MD       1800   69 69   70/  6/  6 1026.4    0
CAMBRIDGE MD     1742   74 69              1027.7F
LEWISETTA VA     1742   67 66  110/  6/  6 1027.0F
RAPPAHANNOCK LGT 1748           10/  7/  8 1027.4F
STINGRAY PT      1800   69 70   80/  4/  6 1027.2    0
YORK RVR RNG VA  1742   70     110/  5/  5 1027.4F
YORKTOWN VA      1742   69 69   90/  8/  9 1026.5F
JAMESTOWN VA     1800      71  180/  4/  4   N/A     0
DOMINION TERM VA 1742   72      80/  2/  5 1026.9F
KIPTOPEKE VA     1742      67  300/  4/  5   N/A
CAPE HENRY VA    1742   69      30/  4/  5   N/A
WILLOUBY STN VA  1742   69      80/  6/  7 1026.8F
S CRANEY ISL VA  1742   72      10/  5/  5 1026.5F
CAPE HENRY BUOY  1800      71                N/A     2/ 8
1ST LANDING BUOY 1800   69 71              1026.6    1/ 4
CAPE CHARLES BUO 1751      71                N/A     2/ 9
64NM E OF VA BCH 1750   68 69   10/  6/  6 1027.4F   2/ 9   2/ 9
DUCK PIER NC     1742   69 70   40/  9/ 10 1026.5F
44100 DUCK FRF   1735      71                N/A     2/ 9
44056 DUCK FRF   1800      71                N/A     2/ 8
OREGON INLET NC  1742   70 69   30/  8/ 10 1026.6F
HATTERAS NC      1742   70 71   30/  7/ 10 1026.7F
DIAMOND SHLS NC  1750   73 81   20/  8/ 12 1026.3F   3/ 8   3/ 8
CAPE LOOKOUT NC  1800   72      50/ 12/ 12 1026.0F
$$




USA.gov is the U.S. government's official web portal to all federal, state and local government web resources and services.